[[{"header":{"parameterUnit":"m.s-1","parameterCategory":1,"la1":30.2991,"la2":30.254,"lo1":-89.0895,"lo2":-89.0444,"dy":0.0017,"dx":0.0017,"nx":28,"ny":28,"refTime":"2023-08-21T03:00:00:Z","depth":0,"parameterNumber":2,"parameterNumberName":"U-component_of_WINDS"},"data":[0,0,0,0,0,0,0,0,0,0,0,0,0,0,0,0,0,0,0,0,0,0,0,0,0,0,0,0,0,0,0,0,0,0,0,0,0,0,0,0,0,0,0,0,0,0,0,0,0,0,0,0,0,0,0,0,0,0,1.8611,1.8612,0,1.8671,1.8672,1.8672,1.8674,1.8674,1.8673,1.8672,1.8729,1.8731,1.8734,0,0,0,0,0,0,0,0,0,0,0,0,0,1.8495,1.8497,1.8611,1.8612,1.8613,1.8671,1.8672,1.8672,1.8675,1.8674,1.8673,1.8672,1.8729,1.8731,1.8734,0,0,0,0,0,0,0,0,0,0,0,0,0,1.8549,1.8498,1.8611,1.8621,1.8623,1.8671,1.8672,1.8673,1.8675,1.8674,1.8673,1.8672,1.8728,1.8731,1.8734,1.8775,0,0,1.8744,1.8746,0,0,0,0,0,0,0,0,1.8546,1.8553,1.8619,1.862,1.8622,1.8664,1.8652,1.8707,1.8675,1.8655,1.8672,1.8671,1.8708,1.8713,1.8726,1.8778,1.878,1.8744,1.8746,1.8748,1.8749,0,0,0,0,0,0,0,1.8542,1.8551,1.8635,1.862,1.8622,1.8621,1.8627,1.8662,1.8687,1.8656,1.8657,1.8664,1.8709,1.8723,1.8728,1.8781,1.8744,1.8747,1.8749,1.8751,1.8868,1.8869,0,0,0,0,0,0,1.8537,1.8548,1.8633,1.8637,1.8581,1.8624,1.8631,1.8652,1.8686,1.8691,1.8665,1.8664,1.8718,1.8724,1.873,1.8779,1.8748,1.8751,1.8753,1.8867,1.8868,1.8869,0,0,0,0,0,0,1.8535,1.8545,1.8631,1.8592,1.8603,1.8627,1.865,1.8653,1.8668,1.8693,1.8697,1.8675,1.8718,1.8725,1.8764,1.8781,1.8752,1.8755,1.8865,1.8867,1.8869,1.8878,0,0,0,0,0,0,1.8531,1.8544,1.8561,1.8593,1.8605,1.8665,1.8651,1.8655,1.8674,1.8673,1.8703,1.8707,1.8717,1.8759,1.8767,1.8785,1.8758,1.8864,1.8866,1.8868,1.8876,1.888,1.8883,0,0,0,0,0,1.8527,1.8561,1.8562,1.8572,1.8627,1.8666,1.8673,1.8685,1.8675,1.8692,1.8707,1.8706,1.8778,1.8763,1.8772,1.8791,1.8863,1.8866,1.8868,1.8875,1.8879,1.8883,0,0,0,0,0,0,1.8529,1.8565,1.8567,1.8612,1.8636,1.8666,1.8687,1.8689,1.8716,1.8714,1.8726,1.8733,1.8771,1.8785,1.8768,1.8832,1.8819,1.8824,1.8821,1.8826,1.8829,1.8824,1.8761,0,0,0,0,0,1.8535,1.8565,1.8594,1.8631,1.8643,1.8663,1.868,1.8688,1.8713,1.8723,1.8741,1.8764,1.8792,1.881,1.8837,1.8879,1.8885,1.8897,1.89,1.8903,1.8906,1.8927,1.8933,1.8878,1.8878,1.8878,0,0,1.8546,1.857,1.8588,1.8632,1.8651,1.868,1.8672,1.8703,1.8724,1.8727,1.8764,1.8779,1.8806,1.8846,1.8865,1.8859,1.8922,1.8906,1.8908,1.891,1.8931,1.8936,1.894,1.888,1.888,1.8879,0,0,1.8582,1.8604,1.8636,1.8656,1.8687,1.87,1.8708,1.8738,1.8748,1.8786,1.8789,1.8813,1.8861,1.888,1.8895,1.8938,1.8937,1.8947,1.8963,1.8984,1.8989,1.8993,1.9006,1.9011,1.895,1.895,1.895,0,1.8592,1.8638,1.8652,1.8684,1.8702,1.8708,1.8739,1.8758,1.8794,1.8806,1.88,1.8859,1.8878,1.8922,1.8932,1.8945,1.8953,1.8942,1.8987,1.8991,1.8995,1.9008,1.9013,1.8951,1.8951,1.8951,1.8951,0,1.8648,1.868,1.8702,1.8738,1.876,1.8791,1.8808,1.8828,1.8833,1.8847,1.8885,1.8907,1.8938,1.8949,1.8955,1.8994,1.8989,1.8985,1.8972,1.9001,1.9013,1.9018,1.8952,1.8952,1.8952,1.8951,0,0,1.8686,1.873,1.8738,1.8754,1.8788,1.8812,1.8843,1.8874,1.889,1.8915,1.894,1.8981,1.8977,1.8994,1.9002,1.9021,1.9051,1.9014,1.9015,1.9019,1.9093,1.9095,1.9101,1.9052,1.9053,1.9054,1.9091,0,1.8724,1.8781,1.8794,1.8842,1.887,1.8876,1.8902,1.8925,1.8938,1.8963,1.8977,1.9005,1.8999,1.9009,1.9028,1.9043,1.9066,1.9041,1.9073,1.9074,1.9065,1.9108,1.911,1.9143,1.9096,1.9097,1.9097,0,1.8776,1.8803,1.8854,1.8884,1.8896,1.892,1.8949,1.8974,1.8999,1.9007,1.9027,1.9033,1.9063,1.905,1.9092,1.9075,1.9089,1.9098,1.91,1.9102,1.9086,1.9109,1.9155,1.9159,1.9105,1.9105,1.9104,0,1.8796,1.8846,1.8882,1.8896,1.8932,1.8948,1.8964,1.8988,1.9006,1.9031,1.9043,1.9071,1.9086,1.9107,1.912,1.9109,1.916,1.9148,1.9166,1.9165,1.9175,1.9173,1.9222,1.9187,1.9187,1.9186,1.9186,0,1.8836,1.8867,1.8892,1.8914,1.8948,1.8963,1.8995,1.901,1.9032,1.9056,1.9063,1.9085,1.9101,1.9125,1.9135,1.9167,1.9174,1.918,1.9182,1.9179,1.9177,1.9186,1.9184,1.9188,1.9188,1.9187,1.9187,0,1.8864,1.8882,1.8922,1.8953,1.8961,1.8984,1.901,1.9031,1.9045,1.9075,1.9083,1.9104,1.9132,1.9148,1.9183,1.919,1.9225,1.9226,1.9216,1.9217,1.9233,1.9231,1.9287,1.9295,1.9256,1.9257,1.9257,0,1.8887,1.8911,1.8945,1.8962,1.8978,1.9006,1.9024,1.9039,1.9058,1.9088,1.9105,1.9134,1.9158,1.9203,1.9221,1.9248,1.9249,1.9267,1.9253,1.9248,1.9247,1.9245,1.9246,1.9268,1.9269,1.9269,1.9269,0,1.8927,1.8935,1.8962,1.8992,1.9014,1.9038,1.9062,1.9075,1.9094,1.9114,1.9144,1.9163,1.9199,1.9227,1.9255,1.927,1.9272,1.9274,1.9279,1.9275,1.9268,1.927,1.9221,1.9272,1.9272,1.9272,1.9271,1.9271,1.8952,1.8973,1.9,1.9029,1.9049,1.9071,1.9092,1.9108,1.9134,1.9166,1.9173,1.9204,1.9228,1.9266,1.9281,1.9304,1.93,1.9308,1.931,1.9311,1.9311,1.9265,1.931,1.931,1.931,1.9309,1.9309,0,1.899,1.9008,1.9035,1.9068,1.9091,1.9094,1.912,1.9138,1.9166,1.9188,1.9212,1.9245,1.9273,1.9293,1.932,1.9335,1.9337,1.9341,1.934,1.9342,1.9314,1.9306,1.934,1.934,1.934,1.934,1.934,1.934,1.9013,1.9048,1.9059,1.9103,1.912,1.9151,1.9166,1.9185,1.9203,1.9241,1.9264,1.9278,1.9299,1.9328,1.9352,1.9357,1.9366,1.9371,1.9375,1.9348,1.9345,1.9342,1.9334,1.9373,1.9373,1.9402,1.9402,1.9402]},{"header":{"parameterUnit":"m.s-1","parameterCategory":1,"la1":30.2991,"la2":30.254,"lo1":-89.0895,"lo2":-89.0444,"dy":0.0017,"dx":0.0017,"nx":28,"ny":28,"refTime":"2023-08-21T03:00:00:Z","depth":0,"parameterNumber":3,"parameterNumberName":"V-component_of_WINDS"},"data":[0,0,0,0,0,0,0,0,0,0,0,0,0,0,0,0,0,0,0,0,0,0,0,0,0,0,0,0,0,0,0,0,0,0,0,0,0,0,0,0,0,0,0,0,0,0,0,0,0,0,0,0,0,0,0,0,0,0,2.1328,2.1328,0,2.1294,2.1294,2.1293,2.1242,2.1241,2.1241,2.124,2.1205,2.1205,2.1205,0,0,0,0,0,0,0,0,0,0,0,0,0,2.1348,2.1348,2.1328,2.1328,2.1327,2.1294,2.1294,2.1293,2.1243,2.1241,2.124,2.1239,2.1205,2.1205,2.1205,0,0,0,0,0,0,0,0,0,0,0,0,0,2.133,2.1348,2.1328,2.1298,2.1295,2.1294,2.1294,2.1293,2.1243,2.1241,2.124,2.1239,2.1205,2.1205,2.1205,2.1231,0,0,2.1205,2.1204,0,0,0,0,0,0,0,0,2.1331,2.1329,2.1303,2.13,2.1296,2.1271,2.1288,2.1272,2.1243,2.1263,2.124,2.1238,2.1228,2.1226,2.1223,2.123,2.1228,2.1205,2.1204,2.1204,2.1204,0,0,0,0,0,0,0,2.1332,2.133,2.1315,2.1302,2.1299,2.1286,2.1282,2.1285,2.1253,2.1261,2.1257,2.1254,2.1226,2.1223,2.1221,2.1228,2.1205,2.1204,2.1204,2.1204,2.1253,2.1255,0,0,0,0,0,0,2.1338,2.1331,2.1316,2.1313,2.1311,2.1287,2.1282,2.1281,2.1253,2.1248,2.1255,2.1251,2.1224,2.1222,2.122,2.1248,2.1204,2.1204,2.1204,2.1252,2.1254,2.1255,0,0,0,0,0,0,2.1338,2.1337,2.1317,2.1321,2.1318,2.1288,2.1287,2.1281,2.1277,2.1249,2.1243,2.1257,2.1223,2.122,2.1229,2.1246,2.1204,2.1204,2.125,2.1252,2.1254,2.1305,0,0,0,0,0,0,2.1339,2.1337,2.1347,2.1322,2.1318,2.1326,2.1288,2.1281,2.1277,2.1272,2.1249,2.1244,2.1221,2.1229,2.1228,2.1245,2.1204,2.1249,2.1251,2.1254,2.1302,2.1309,2.1315,0,0,0,0,0,2.134,2.1363,2.1348,2.1346,2.1329,2.1327,2.1325,2.1298,2.1279,2.1288,2.127,2.1245,2.1245,2.123,2.1229,2.1246,2.1247,2.1251,2.1254,2.1299,2.1307,2.1314,0,0,0,0,0,0,2.1391,2.1359,2.1342,2.1357,2.1346,2.1319,2.133,2.1308,2.1301,2.1297,2.1264,2.1259,2.1272,2.126,2.1245,2.127,2.1242,2.1245,2.1277,2.1285,2.1291,2.1293,2.1204,0,0,0,0,0,2.1404,2.1405,2.1377,2.1393,2.1388,2.136,2.1358,2.1339,2.1325,2.132,2.1302,2.129,2.1286,2.1285,2.1281,2.13,2.1294,2.1311,2.1318,2.1323,2.1326,2.1334,2.1341,2.1265,2.1265,2.1265,0,0,2.1431,2.1414,2.1416,2.1403,2.1392,2.1393,2.1356,2.136,2.136,2.132,2.1327,2.1313,2.1297,2.1311,2.1316,2.1302,2.1346,2.1327,2.1332,2.1331,2.1338,2.1345,2.1352,2.1267,2.1267,2.1267,0,0,2.148,2.1468,2.1479,2.1469,2.1451,2.1433,2.1436,2.1412,2.1402,2.1408,2.1377,2.1378,2.1374,2.1363,2.1357,2.1403,2.1379,2.1402,2.1436,2.1444,2.145,2.1455,2.147,2.1476,2.1405,2.1405,2.1405,0,2.1515,2.1517,2.1488,2.1493,2.1488,2.1452,2.1463,2.1454,2.1437,2.1434,2.1418,2.1411,2.1398,2.1408,2.1419,2.1416,2.1418,2.1404,2.1452,2.1456,2.1461,2.1475,2.1481,2.1408,2.1408,2.1408,2.1407,0,2.1561,2.1562,2.1573,2.1557,2.1554,2.1562,2.1534,2.1534,2.1515,2.1498,2.1504,2.1487,2.1478,2.1479,2.1461,2.1487,2.1478,2.1458,2.1429,2.1471,2.1484,2.1489,2.1412,2.1411,2.141,2.141,0,0,2.164,2.1608,2.1613,2.1605,2.1583,2.1584,2.159,2.1582,2.1582,2.1571,2.1575,2.1572,2.1553,2.1546,2.1526,2.1534,2.157,2.1512,2.1511,2.1522,2.1596,2.1611,2.1618,2.1555,2.1556,2.1556,2.1597,0,2.1684,2.1694,2.1668,2.1684,2.1684,2.165,2.1656,2.1643,2.1627,2.1625,2.1608,2.1606,2.1581,2.1577,2.1583,2.1564,2.1584,2.1561,2.1557,2.1558,2.1561,2.1625,2.1641,2.168,2.1602,2.1603,2.1604,0,2.1737,2.1729,2.1745,2.1722,2.1721,2.1727,2.1716,2.1715,2.17,2.1688,2.1681,2.1657,2.1662,2.1635,2.164,2.1625,2.1622,2.1613,2.1614,2.1612,2.1582,2.1623,2.1692,2.1698,2.1611,2.1611,2.161,0,2.1792,2.1785,2.1793,2.1788,2.1762,2.1766,2.1756,2.1739,2.1736,2.1727,2.1724,2.1716,2.1711,2.1705,2.168,2.1663,2.1688,2.166,2.1678,2.1678,2.1683,2.1683,2.1752,2.1684,2.1684,2.1684,2.1683,0,2.1843,2.1854,2.1818,2.1823,2.1834,2.1804,2.1816,2.1802,2.1788,2.1789,2.1759,2.1761,2.1728,2.1727,2.1707,2.1714,2.1712,2.1702,2.1696,2.1704,2.1705,2.1701,2.1697,2.1685,2.1685,2.1684,2.1684,0,2.1906,2.1883,2.1889,2.1864,2.1858,2.1867,2.1846,2.1849,2.1832,2.1834,2.1832,2.1805,2.1801,2.1776,2.1766,2.1753,2.1767,2.1756,2.1772,2.1768,2.1787,2.1785,2.1854,2.1861,2.179,2.1791,2.1791,0,2.194,2.1947,2.1923,2.1922,2.1913,2.1912,2.1908,2.1879,2.1876,2.186,2.1865,2.1859,2.1852,2.1848,2.1827,2.1819,2.1808,2.1832,2.1806,2.1813,2.1807,2.1806,2.1806,2.1838,2.1839,2.1839,2.184,0,2.2002,2.199,2.1986,2.1977,2.1973,2.1965,2.1955,2.1956,2.1924,2.1923,2.1918,2.1914,2.1904,2.1898,2.1886,2.1875,2.1852,2.1849,2.1852,2.1859,2.1867,2.1862,2.1786,2.1847,2.1846,2.1846,2.1845,2.1845,2.2051,2.2055,2.2039,2.2035,2.2025,2.2016,2.2018,2.2001,2.1997,2.1987,2.197,2.1968,2.1952,2.1935,2.1925,2.1923,2.191,2.1915,2.1916,2.1918,2.1921,2.1869,2.1921,2.1921,2.1921,2.192,2.192,0,2.211,2.2098,2.2095,2.2082,2.2079,2.2058,2.2046,2.2044,2.2043,2.203,2.2025,2.2019,2.2013,2.1992,2.1984,2.1986,2.1975,2.1984,2.1983,2.1981,2.1934,2.1931,2.1993,2.1993,2.1993,2.1993,2.1993,2.1993,2.2141,2.2148,2.2134,2.2135,2.2122,2.212,2.2115,2.2107,2.2096,2.2092,2.2087,2.2073,2.2057,2.2047,2.204,2.2034,2.2032,2.2045,2.2035,2.1991,2.1984,2.1978,2.1975,2.2045,2.2045,2.2081,2.2082,2.2082]}]]